Time,TemperatureF,DewpointF,PressureIn,WindDirection,WindDirectionDegrees,WindSpeedMPH,WindSpeedGustMPH,Humidity,HourlyPrecipIn,Conditions,Clouds,dailyrainin,SoftwareType,DateUTC
2013-02-25 00:01:00,31.0,25.0,29.90,West,268,4.0,15.0,79,0.00,,,0.01,,2013-02-25 05:01:00,
2013-02-25 00:11:00,31.0,25.0,29.90,West,268,4.0,15.0,79,0.00,,,0.01,,2013-02-25 05:11:00,
2013-02-25 00:22:00,31.0,25.0,29.90,NNW,331,4.0,11.0,79,0.00,,,0.01,,2013-02-25 05:22:00,
2013-02-25 00:32:00,31.0,26.0,29.91,West,275,5.0,16.0,80,0.00,,,0.01,,2013-02-25 05:32:00,
2013-02-25 00:42:00,31.0,26.0,29.91,West,275,5.0,16.0,80,0.00,,,0.01,,2013-02-25 05:42:00,
2013-02-25 00:52:00,31.0,26.0,29.91,West,262,7.0,12.0,80,0.00,,,0.01,,2013-02-25 05:52:00,
2013-02-25 01:02:00,31.0,26.0,29.91,WNW,296,4.0,14.0,81,0.00,,,0.01,,2013-02-25 06:02:00,
2013-02-25 01:11:00,31.0,26.0,29.91,WNW,296,4.0,14.0,81,0.00,,,0.01,,2013-02-25 06:11:00,
2013-02-25 01:21:00,31.0,26.0,29.91,West,263,8.0,13.0,81,0.00,,,0.01,,2013-02-25 06:21:00,
2013-02-25 01:32:00,31.0,26.0,29.92,WNW,288,4.0,15.0,81,0.00,,,0.01,,2013-02-25 06:32:00,
2013-02-25 01:42:00,31.0,26.0,29.92,WNW,288,4.0,15.0,81,0.00,,,0.01,,2013-02-25 06:42:00,
2013-02-25 01:52:00,31.0,26.0,29.92,West,277,4.0,13.0,82,0.00,,,0.01,,2013-02-25 06:52:00,
2013-02-25 02:01:00,31.0,26.0,29.92,WSW,257,9.0,15.0,81,0.00,,,0.01,,2013-02-25 07:01:00,
2013-02-25 02:11:00,31.0,26.0,29.92,West,260,13.0,21.0,82,0.00,,,0.01,,2013-02-25 07:11:00,
2013-02-25 02:21:00,31.0,26.0,29.92,West,260,13.0,21.0,82,0.00,,,0.01,,2013-02-25 07:21:00,
2013-02-25 02:32:00,31.0,26.0,29.92,West,267,10.0,19.0,83,0.00,,,0.01,,2013-02-25 07:32:00,
2013-02-25 02:42:00,31.0,26.0,29.92,West,267,10.0,19.0,83,0.00,,,0.01,,2013-02-25 07:42:00,
2013-02-25 02:52:00,31.0,26.0,29.92,WNW,302,6.0,17.0,83,0.00,,,0.01,,2013-02-25 07:52:00,
2013-02-25 03:01:00,31.0,26.0,29.92,WNW,287,2.0,11.0,82,0.00,,,0.01,,2013-02-25 08:01:00,
2013-02-25 03:11:00,31.0,26.0,29.93,West,277,6.0,12.0,83,0.00,,,0.01,,2013-02-25 08:11:00,
2013-02-25 03:21:00,31.0,26.0,29.93,West,277,6.0,12.0,83,0.00,,,0.01,,2013-02-25 08:21:00,
2013-02-25 03:32:00,31.0,26.0,29.93,West,264,3.0,12.0,83,0.00,,,0.01,,2013-02-25 08:32:00,
2013-02-25 03:41:00,31.0,26.0,29.93,West,264,3.0,12.0,83,0.00,,,0.01,,2013-02-25 08:41:00,
2013-02-25 03:52:00,31.0,27.0,29.93,WNW,298,4.0,12.0,84,0.00,,,0.01,,2013-02-25 08:52:00,
2013-02-25 04:01:00,31.0,27.0,29.94,West,269,1.0,9.0,84,0.00,,,0.01,,2013-02-25 09:01:00,
2013-02-25 04:12:00,31.0,27.0,29.94,West,269,1.0,9.0,84,0.00,,,0.01,,2013-02-25 09:12:00,
2013-02-25 04:21:00,31.0,27.0,29.94,West,269,2.0,9.0,84,0.00,,,0.01,,2013-02-25 09:21:00,
2013-02-25 04:32:00,31.0,27.0,29.95,West,263,5.0,12.0,85,0.00,,,0.01,,2013-02-25 09:32:00,
2013-02-25 04:42:00,31.0,27.0,29.95,West,263,5.0,12.0,85,0.00,,,0.01,,2013-02-25 09:42:00,
2013-02-25 04:52:00,31.0,27.0,29.95,NW,306,1.0,13.0,84,0.00,,,0.01,,2013-02-25 09:52:00,
2013-02-25 05:01:00,31.0,27.0,29.96,WNW,284,1.0,5.0,84,0.00,,,0.00,,2013-02-25 10:01:00,
2013-02-25 05:11:00,31.0,27.0,29.96,West,264,3.0,10.0,85,0.00,,,0.00,,2013-02-25 10:11:00,
2013-02-25 05:21:00,31.0,27.0,29.96,West,264,3.0,10.0,85,0.00,,,0.00,,2013-02-25 10:21:00,
2013-02-25 05:32:00,31.0,27.0,29.97,West,272,1.0,7.0,85,0.00,,,0.00,,2013-02-25 10:32:00,
2013-02-25 05:42:00,31.0,27.0,29.97,West,272,1.0,7.0,85,0.00,,,0.00,,2013-02-25 10:42:00,
2013-02-25 05:52:00,32.0,28.0,29.97,West,276,6.0,11.0,84,0.00,,,0.00,,2013-02-25 10:52:00,
2013-02-25 06:01:00,32.0,27.0,29.97,West,269,4.0,9.0,83,0.00,,,0.00,,2013-02-25 11:01:00,
2013-02-25 06:11:00,32.0,27.0,29.97,West,269,4.0,9.0,83,0.00,,,0.00,,2013-02-25 11:11:00,
2013-02-25 06:22:00,31.0,26.0,29.98,WNW,298,0.0,3.0,83,0.00,,,0.00,,2013-02-25 11:22:00,
2013-02-25 06:32:00,32.0,27.0,29.98,WSW,256,7.0,14.0,83,0.00,,,0.00,,2013-02-25 11:32:00,
2013-02-25 06:42:00,32.0,27.0,29.98,WSW,256,7.0,14.0,83,0.00,,,0.00,,2013-02-25 11:42:00,
2013-02-25 06:52:00,32.0,27.0,29.99,WNW,298,4.0,11.0,82,0.00,,,0.00,,2013-02-25 11:52:00,
2013-02-25 07:02:00,32.0,27.0,30.00,WNW,297,4.0,12.0,82,0.00,,,0.00,,2013-02-25 12:02:00,
2013-02-25 07:11:00,32.0,27.0,30.00,WNW,297,4.0,12.0,82,0.00,,,0.00,,2013-02-25 12:11:00,
2013-02-25 07:21:00,32.0,27.0,30.00,West,270,4.0,7.0,82,0.00,,,0.00,,2013-02-25 12:21:00,
2013-02-25 07:32:00,32.0,27.0,30.00,West,265,3.0,9.0,81,0.00,,,0.00,,2013-02-25 12:32:00,
2013-02-25 07:42:00,32.0,27.0,30.00,West,265,3.0,9.0,81,0.00,,,0.00,,2013-02-25 12:42:00,
2013-02-25 07:55:00,32.0,27.0,30.01,WNW,292,1.0,9.0,80,0.00,,,0.00,,2013-02-25 12:55:00,
2013-02-25 08:02:00,33.0,28.0,30.01,West,271,3.0,10.0,80,0.00,,,0.00,,2013-02-25 13:02:00,
2013-02-25 08:12:00,33.0,28.0,30.01,West,271,3.0,10.0,80,0.00,,,0.00,,2013-02-25 13:12:00,
2013-02-25 08:22:00,33.0,27.0,30.01,West,279,3.0,14.0,79,0.00,,,0.00,,2013-02-25 13:22:00,
2013-02-25 08:32:00,33.0,28.0,30.03,West,261,2.0,11.0,80,0.00,,,0.00,,2013-02-25 13:32:00,
2013-02-25 08:42:00,33.0,28.0,30.03,West,261,2.0,11.0,80,0.00,,,0.00,,2013-02-25 13:42:00,
2013-02-25 08:52:00,34.0,28.0,30.03,NW,306,3.0,11.0,78,0.00,,,0.00,,2013-02-25 13:52:00,
2013-02-25 09:03:00,34.0,28.0,30.03,West,267,0.0,6.0,78,0.00,,,0.00,,2013-02-25 14:03:00,
2013-02-25 09:17:00,34.0,28.0,30.03,West,267,0.0,6.0,78,0.00,,,0.00,,2013-02-25 14:17:00,
2013-02-25 09:32:00,36.0,28.0,30.03,WNW,285,2.0,5.0,72,0.00,,,0.00,,2013-02-25 14:32:00,
2013-02-25 09:42:00,36.0,28.0,30.03,WNW,285,2.0,5.0,72,0.00,,,0.00,,2013-02-25 14:42:00,
2013-02-25 09:52:00,36.0,28.0,30.03,West,265,0.0,1.0,73,0.00,,,0.00,,2013-02-25 14:52:00,
2013-02-25 10:03:00,37.0,28.0,30.03,North,360,2.0,5.0,70,0.00,,,0.00,,2013-02-25 15:03:00,
2013-02-25 10:11:00,37.0,28.0,30.03,North,360,2.0,5.0,70,0.00,,,0.00,,2013-02-25 15:11:00,
2013-02-25 10:22:00,37.0,28.0,30.03,North,355,1.0,5.0,70,0.00,,,0.00,,2013-02-25 15:22:00,
2013-02-25 10:32:00,38.0,29.0,30.05,WNW,286,1.0,4.0,69,0.00,,,0.00,,2013-02-25 15:32:00,
2013-02-25 10:42:00,38.0,29.0,30.05,WNW,286,1.0,4.0,69,0.00,,,0.00,,2013-02-25 15:42:00,
2013-02-25 10:52:00,37.0,27.0,30.04,WNW,287,0.0,3.0,68,0.00,,,0.00,,2013-02-25 15:52:00,
2013-02-25 11:02:00,37.0,28.0,30.04,West,265,1.0,6.0,69,0.00,,,0.00,,2013-02-25 16:02:00,
2013-02-25 11:12:00,37.0,28.0,30.04,West,265,1.0,6.0,69,0.00,,,0.00,,2013-02-25 16:12:00,
2013-02-25 11:22:00,37.0,28.0,30.04,NW,323,1.0,4.0,69,0.00,,,0.00,,2013-02-25 16:22:00,
2013-02-25 11:32:00,38.0,28.0,30.04,WNW,302,2.0,4.0,66,0.00,,,0.00,,2013-02-25 16:32:00,
2013-02-25 11:42:00,38.0,28.0,30.04,WNW,302,2.0,4.0,66,0.00,,,0.00,,2013-02-25 16:42:00,
2013-02-25 11:52:00,38.0,28.0,30.04,WNW,301,2.0,5.0,66,0.00,,,0.00,,2013-02-25 16:52:00,
2013-02-25 12:01:00,38.0,28.0,30.04,WNW,290,0.0,3.0,66,0.00,,,0.00,,2013-02-25 17:01:00,
2013-02-25 12:11:00,38.0,28.0,30.04,WNW,290,0.0,3.0,66,0.00,,,0.00,,2013-02-25 17:11:00,
2013-02-25 12:21:00,38.0,28.0,30.05,WSW,257,2.0,7.0,66,0.00,,,0.00,,2013-02-25 17:21:00,
2013-02-25 12:32:00,39.0,28.0,30.05,NNW,348,2.0,5.0,65,0.00,,,0.00,,2013-02-25 17:32:00,
2013-02-25 12:42:00,39.0,28.0,30.05,NNW,348,2.0,5.0,65,0.00,,,0.00,,2013-02-25 17:42:00,
2013-02-25 12:52:00,38.0,27.0,30.06,NNW,344,1.0,3.0,64,0.00,,,0.00,,2013-02-25 17:52:00,
2013-02-25 13:01:00,39.0,28.0,30.06,NW,306,1.0,2.0,64,0.00,,,0.00,,2013-02-25 18:01:00,
2013-02-25 13:12:00,39.0,28.0,30.06,NW,306,1.0,2.0,64,0.00,,,0.00,,2013-02-25 18:12:00,
2013-02-25 13:21:00,39.0,27.0,30.06,WNW,302,1.0,4.0,62,0.00,,,0.00,,2013-02-25 18:21:00,
2013-02-25 13:32:00,40.0,28.0,30.07,WNW,302,0.0,1.0,62,0.00,,,0.00,,2013-02-25 18:32:00,
2013-02-25 13:42:00,40.0,28.0,30.07,WNW,302,0.0,1.0,62,0.00,,,0.00,,2013-02-25 18:42:00,
2013-02-25 13:52:00,40.0,28.0,30.07,WNW,300,0.0,3.0,62,0.00,,,0.00,,2013-02-25 18:52:00,
2013-02-25 14:01:00,39.0,27.0,30.07,WNW,300,0.0,3.0,62,0.00,,,0.00,,2013-02-25 19:01:00,
2013-02-25 14:11:00,39.0,27.0,30.07,WNW,300,0.0,3.0,62,0.00,,,0.00,,2013-02-25 19:11:00,
2013-02-25 14:21:00,40.0,28.0,30.06,WNW,301,0.0,1.0,62,0.00,,,0.00,,2013-02-25 19:21:00,
2013-02-25 14:32:00,40.0,28.0,30.06,WNW,296,2.0,3.0,63,0.00,,,0.00,,2013-02-25 19:32:00,
2013-02-25 14:42:00,40.0,28.0,30.06,WNW,296,2.0,3.0,63,0.00,,,0.00,,2013-02-25 19:42:00,
2013-02-25 14:52:00,39.0,29.0,30.07,West,265,2.0,6.0,66,0.00,,,0.00,,2013-02-25 19:52:00,
2013-02-25 15:01:00,39.0,29.0,30.07,WSW,257,3.0,6.0,68,0.00,,,0.00,,2013-02-25 20:01:00,
2013-02-25 15:11:00,39.0,29.0,30.07,WSW,257,3.0,6.0,68,0.00,,,0.00,,2013-02-25 20:11:00,
2013-02-25 15:21:00,39.0,30.0,30.08,West,260,3.0,7.0,69,0.00,,,0.00,,2013-02-25 20:21:00,
2013-02-25 15:32:00,39.0,30.0,30.08,NNW,338,1.0,3.0,69,0.00,,,0.00,,2013-02-25 20:32:00,
2013-02-25 15:42:00,39.0,30.0,30.08,NNW,338,1.0,3.0,69,0.00,,,0.00,,2013-02-25 20:42:00,
2013-02-25 15:52:00,40.0,31.0,30.08,NNW,338,1.0,3.0,69,0.00,,,0.00,,2013-02-25 20:52:00,
2013-02-25 16:01:00,40.0,30.0,30.07,WNW,292,1.0,3.0,68,0.00,,,0.00,,2013-02-25 21:01:00,
2013-02-25 16:11:00,40.0,30.0,30.07,WNW,292,1.0,3.0,68,0.00,,,0.00,,2013-02-25 21:11:00,
2013-02-25 16:21:00,40.0,30.0,30.08,WNW,294,0.0,4.0,68,0.00,,,0.00,,2013-02-25 21:21:00,
2013-02-25 16:32:00,40.0,31.0,30.08,WNW,296,0.0,3.0,69,0.00,,,0.00,,2013-02-25 21:32:00,
2013-02-25 16:42:00,40.0,31.0,30.08,WNW,296,0.0,3.0,69,0.00,,,0.00,,2013-02-25 21:42:00,
2013-02-25 16:52:00,39.0,30.0,30.08,WNW,286,0.0,3.0,69,0.00,,,0.00,,2013-02-25 21:52:00,
2013-02-25 17:01:00,39.0,30.0,30.08,WNW,288,2.0,3.0,69,0.00,,,0.00,,2013-02-25 22:01:00,
2013-02-25 17:11:00,39.0,30.0,30.08,WNW,288,2.0,3.0,69,0.00,,,0.00,,2013-02-25 22:11:00,
2013-02-25 17:21:00,39.0,30.0,30.09,WNW,288,0.0,1.0,70,0.00,,,0.00,,2013-02-25 22:21:00,
2013-02-25 17:32:00,39.0,30.0,30.08,WNW,288,2.0,3.0,71,0.00,,,0.00,,2013-02-25 22:32:00,
2013-02-25 17:42:00,39.0,30.0,30.08,WNW,288,2.0,3.0,71,0.00,,,0.00,,2013-02-25 22:42:00,
2013-02-25 17:52:00,38.0,29.0,30.09,WNW,288,1.0,3.0,71,0.00,,,0.00,,2013-02-25 22:52:00,
2013-02-25 18:01:00,38.0,29.0,30.09,West,269,2.0,4.0,71,0.00,,,0.00,,2013-02-25 23:01:00,
2013-02-25 18:11:00,38.0,29.0,30.09,West,269,2.0,4.0,71,0.00,,,0.00,,2013-02-25 23:11:00,
2013-02-25 18:22:00,38.0,30.0,30.09,NNW,336,1.0,3.0,72,0.00,,,0.00,,2013-02-25 23:22:00,
2013-02-25 18:32:00,38.0,30.0,30.11,NNW,336,0.0,2.0,72,0.00,,,0.00,,2013-02-25 23:32:00,
2013-02-25 18:42:00,38.0,30.0,30.11,NNW,336,0.0,2.0,72,0.00,,,0.00,,2013-02-25 23:42:00,
2013-02-25 18:52:00,37.0,29.0,30.11,WSW,253,2.0,5.0,73,0.00,,,0.00,,2013-02-25 23:52:00,
2013-02-25 19:01:00,37.0,30.0,30.12,WSW,254,4.0,14.0,75,0.00,,,0.00,,2013-02-26 00:01:00,
2013-02-25 19:12:00,37.0,30.0,30.12,WSW,254,4.0,14.0,75,0.00,,,0.00,,2013-02-26 00:12:00,
2013-02-25 19:22:00,37.0,30.0,30.12,West,268,8.0,13.0,75,0.00,,,0.00,,2013-02-26 00:22:00,
2013-02-25 19:32:00,37.0,30.0,30.12,WNW,286,8.0,16.0,76,0.00,,,0.00,,2013-02-26 00:32:00,
2013-02-25 19:42:00,37.0,30.0,30.12,WNW,286,8.0,16.0,76,0.00,,,0.00,,2013-02-26 00:42:00,
2013-02-25 19:52:00,37.0,30.0,30.12,West,271,7.0,17.0,76,0.00,,,0.00,,2013-02-26 00:52:00,
2013-02-25 20:02:00,36.0,29.0,30.12,West,272,4.0,14.0,76,0.00,,,0.00,,2013-02-26 01:02:00,
2013-02-25 20:11:00,36.0,29.0,30.12,West,272,4.0,14.0,76,0.00,,,0.00,,2013-02-26 01:11:00,
2013-02-25 20:21:00,36.0,29.0,30.12,WNW,290,4.0,12.0,76,0.00,,,0.00,,2013-02-26 01:21:00,
2013-02-25 20:32:00,36.0,29.0,30.12,West,272,5.0,13.0,76,0.00,,,0.00,,2013-02-26 01:32:00,
2013-02-25 20:42:00,36.0,29.0,30.12,West,272,5.0,13.0,76,0.00,,,0.00,,2013-02-26 01:42:00,
2013-02-25 20:52:00,36.0,29.0,30.12,West,271,5.0,13.0,75,0.00,,,0.00,,2013-02-26 01:52:00,
2013-02-25 21:01:00,36.0,29.0,30.13,West,263,6.0,14.0,75,0.00,,,0.00,,2013-02-26 02:01:00,
2013-02-25 21:11:00,36.0,29.0,30.13,West,263,6.0,14.0,75,0.00,,,0.00,,2013-02-26 02:11:00,
2013-02-25 21:21:00,36.0,29.0,30.13,West,277,5.0,11.0,75,0.00,,,0.00,,2013-02-26 02:21:00,
2013-02-25 21:32:00,36.0,29.0,30.13,West,271,4.0,13.0,75,0.00,,,0.00,,2013-02-26 02:32:00,
2013-02-25 21:42:00,36.0,29.0,30.13,West,271,4.0,13.0,75,0.00,,,0.00,,2013-02-26 02:42:00,
2013-02-25 21:52:00,36.0,29.0,30.13,WNW,296,4.0,14.0,75,0.00,,,0.00,,2013-02-26 02:52:00,
2013-02-25 22:02:00,35.0,28.0,30.13,WSW,257,6.0,16.0,75,0.00,,,0.00,,2013-02-26 03:02:00,
2013-02-25 22:11:00,35.0,28.0,30.13,WSW,257,6.0,16.0,75,0.00,,,0.00,,2013-02-26 03:11:00,
2013-02-25 22:21:00,35.0,28.0,30.14,WSW,246,6.0,15.0,75,0.00,,,0.00,,2013-02-26 03:21:00,
2013-02-25 22:32:00,35.0,28.0,30.14,WSW,257,5.0,14.0,75,0.00,,,0.00,,2013-02-26 03:32:00,
2013-02-25 22:42:00,35.0,28.0,30.14,WSW,257,5.0,14.0,75,0.00,,,0.00,,2013-02-26 03:42:00,
2013-02-25 22:52:00,35.0,28.0,30.14,West,265,4.0,10.0,76,0.00,,,0.00,,2013-02-26 03:52:00,
2013-02-25 23:01:00,35.0,28.0,30.15,West,269,4.0,7.0,76,0.00,,,0.00,,2013-02-26 04:01:00,
2013-02-25 23:11:00,35.0,28.0,30.15,West,269,4.0,7.0,76,0.00,,,0.00,,2013-02-26 04:11:00,
2013-02-25 23:22:00,35.0,28.0,30.14,WSW,248,4.0,10.0,76,0.00,,,0.00,,2013-02-26 04:22:00,
2013-02-25 23:32:00,34.0,27.0,30.15,WSW,254,0.0,4.0,76,0.00,,,0.00,,2013-02-26 04:32:00,
2013-02-25 23:42:00,34.0,27.0,30.15,WSW,254,0.0,4.0,76,0.00,,,0.00,,2013-02-26 04:42:00,
2013-02-25 23:52:00,34.0,28.0,30.16,WNW,295,0.0,4.0,77,0.00,,,0.00,,2013-02-26 04:52:00,